STARLINK-36309, 68325

Orbit data source: Space-Track

STARLINK-36309, 68325 is a payload satellite owned by SpaceX/Seattle (US) in LEO that was launched on Sun, 22 Mar 2026 UTC via an FALCON 9 launch vehicle from the Air Force Eastern Test Range (AFETR). Payload-class satellites include a variety of spacecraft equipped with specific instruments for various scientific and technological missions. These include communications satellites like Starlink; space stations such as the ISS; scientific satellites like the Hubble; Earth observation satellites from companies like Planet Labs, Umbra, and HawkEye 360; GPS; miniature CubeSats for education and research; and military/defense satellites.

Loading next visibility...
Identifier
68325, 2026-059E
Orbit
LEO
Country
Flag of USUS
Related business
Manufacturer
SpaceX/Seattle
Mission
Operational spacecraft
Bus & Motor
STARLINK V2MO, Unknown motor
Mass
575 kg wet, ~530 kg dry
Launch date (UTC)
2026-03-22 (3 months ago)
Launch vehicle
FALCON 9
Launch site
Air Force Eastern Test Range (AFETR)
Object type
Payload
Rocket body
Debris
Shape & HBR
Unknown shape, 17.7 m
Radar Cross Section
Large (>1 m²)

Expand to show TLE details & history
Last TLE update: 10 hours ago

TLE from 10 hours ago
0 STARLINK-36309
1 68325U 26059E   26171.45226883  .00016147  00000-0  48777-3 0  9996
2 68325  53.1581 226.3410 0001228  82.1095 278.0047 15.34414994 13977
Epoch: 2026-06-20T10:51Z
TLE epoch observation values (Epoch: 2026-06-20T10:51:16.026Z)
Latitude
-0.00004°
Longitude
154.85751°
Altitude
463.443 km
Speed
7.636 km/s
True Right ascension
15h 05m 21s
True Declination
0° 00' 00"
Sunlit
Object was in full shadow at epoch
Visualization orbit readout
Latitude
Unknown
Longitude
Unknown
Altitude
Unknown
Speed
Unknown
Apparent Right ascension
Unknown
Apparent Declination
Unknown
Sunlit
N/A
Visualization observer readout
Local Sidereal Time
07:17:17
Azimuth
Unknown
Elevation
Unknown
Doppler factor
Unknown
Orbital elements
Apogee altitude
463.756 km
Perigee altitude
462.076 km
Semi-major axis
6,841.053 km
Eccentricity
0.00012
Inclination
53.1581°
RAAN
226.341°
Arg. of periapsis
82.1095°
True anomaly
277.99076°
Mean anomaly
278.0047°
Eccentric anomaly
277.99773°
Mean motion
3.83582 °/min
Orbital period
93.85 mins
BSTAR
0.00048777
Loading maneuver chart data...
Computing Atmospheric mass density...
Loading historical data...
Loading historical data...
Loading historical data...
Loading historical data...
Loading historical data...
Loading historical data...
Loading historical data...

Documentation

Showing up to 5 results
|